Weather reports worldwide

Advertisment
Garmisch-Partenkirchen, Germany (10963): temperature & dewpoint: 10.11.2018 05:00:00 - 16.11.2018 05:00:00 (CET)Garmisch-Partenkirchen, Germany (10963): temperature 5cm & temperature -5cm: 10.11.2018 05:00:00 - 16.11.2018 05:00:00 (CET)Garmisch-Partenkirchen, Germany (10963): temperature -20cm & temperature -100cm: 10.11.2018 05:00:00 - 16.11.2018 05:00:00 (CET)Garmisch-Partenkirchen, Germany (10963): wind speed & gusts: 10.11.2018 05:00:00 - 16.11.2018 05:00:00 (CET)Garmisch-Partenkirchen, Germany (10963): wind direction: 10.11.2018 05:00:00 - 16.11.2018 05:00:00 (CET)Garmisch-Partenkirchen, Germany (10963): reduced air pressure: 10.11.2018 05:00:00 - 16.11.2018 05:00:00 (CET)Garmisch-Partenkirchen, Germany (10963): visibility: 10.11.2018 05:00:00 - 16.11.2018 05:00:00 (CET)Garmisch-Partenkirchen, Germany (10963): sunshine duration: 10.11.2018 05:00:00 - 16.11.2018 05:00:00 (CET)Garmisch-Partenkirchen, Germany (10963): precipitation: 10.11.2018 05:00:00 - 16.11.2018 05:00:00 (CET)
Date & Time tt [°C] td [°C] tt 5cm [°C] tt -5cm [°C] tt -20cm [°C] tt -100cm [°C] ff [km/h] ff [kn] fx [km/h] fx [kn] dd ppp [hPa] vv [km] sd [min] rr [mm]
16.11.2018 05:00:00 0,0 -0,9 -0,1 3,5 5,2 10,0 3 2 8 4 W 1029,6 28 0 0,0
16.11.2018 04:00:00 0,7 -0,4 0,6 3,9 5,2 10,0 3 2 9 5 WSW 1029,3 27 0 0,0
16.11.2018 03:00:00 1,0 0,3 1,1 4,0 5,3 10,0 4 2 10 5 S 1029,5 9 0 0,0
16.11.2018 02:00:00 1,5 0,8 1,6 4,1 5,3 10,0 3 2 8 4 S 1029,7 13 0 0,0
16.11.2018 01:00:00 1,8 0,8 1,8 4,2 5,4 10,0 3 2 8 4 S 1029,5 16 0 0,0
16.11.2018 00:00:00 1,9 0,9 2,0 4,3 5,4 10,0 5 3 10 6 E 1029,4 21 0 0,0
15.11.2018 23:00:00 2,1 0,9 2,2 4,4 5,4 10,0 3 1 8 4 SSE 1028,6 21 0 0,0
15.11.2018 22:00:00 2,4 1,2 2,5 4,5 5,5 10,0 4 2 9 5 S 1028,8 23 0 0,0
15.11.2018 21:00:00 2,6 1,2 2,6 4,6 5,5 10,0 4 2 8 4 S 1029,0 27 0 0,0
15.11.2018 20:00:00 2,7 1,7 2,7 4,7 5,5 10,0 5 3 8 4 S 1028,5 22 0 0,0
15.11.2018 19:00:00 3,0 1,8 2,9 4,9 5,5 10,0 4 2 8 5 W 1028,7 22 0 0,0
15.11.2018 18:00:00 3,4 2,1 3,3 5,1 5,5 10,0 3 1 6 3 W 1028,3 23 0 0,0
15.11.2018 17:00:00 3,4 2,1 3,5 5,4 5,4 10,0 3 2 12 7 S 1028,2 26 0 0,0
15.11.2018 16:00:00 3,6 2,2 3,8 5,8 5,2 10,0 5 3 11 6 E 1027,9 28 0 0,0
15.11.2018 15:00:00 4,2 2,2 4,4 6,0 5,0 10,0 4 2 9 5 E 1027,5 35 0 0,0
15.11.2018 14:00:00 4,1 2,0 4,7 5,6 4,6 10,0 5 3 14 8 SSE 1027,6 33 0 0,0
15.11.2018 13:00:00 4,3 2,5 4,5 5,4 4,3 10,1 8 4 14 7 NE 1027,9 33 3 0,0
15.11.2018 12:00:00 3,5 1,3 4,1 4,1 4,0 10,1 8 4 12 7 ENE 1028,3 38 17 0,0
15.11.2018 11:00:00 2,1 1,5 2,6 2,7 3,9 10,1 2 1 7 4 ESE 1029,0 2,2 3 0,0
15.11.2018 10:00:00 0,6 0,4 0,9 1,1 4,0 10,1 3 2 9 5 E 1030,1 0,1 0 0,0
15.11.2018 09:00:00 -0,4 -0,5 -0,5 1,0 4,1 10,1 4 2 10 5 E 1030,4 0,3 0 0,0
15.11.2018 08:00:00 -1,8 -2,2 -4,4 1,1 4,2 10,1 0 0 6 3 N 1030,6 51 0 0,0
15.11.2018 07:00:00 -1,6 -2,0 -4,1 1,3 4,4 10,1 4 2 6 3 WSW 1030,3 62 0 0,0
15.11.2018 06:00:00 -1,4 -1,9 -4,2 1,4 4,6 10,1 3 2 7 4 WSW 1030,4 62 0 0,0
15.11.2018 05:00:00 -1,2 -1,7 -4,0 1,5 4,7 10,1 2 1 6 3 NW 1030,3 54 0 0,0
15.11.2018 04:00:00 -1,0 -1,4 -2,8 1,6 4,9 10,1 4 2 6 4 WSW 1030,4 43 0 0,0
15.11.2018 03:00:00 -0,9 -1,4 -3,4 1,8 5,2 10,1 4 2 6 4 WSW 1030,1 45 0 0,0
15.11.2018 02:00:00 -0,8 -1,0 -3,2 2,0 5,4 10,1 4 2 8 4 SW 1030,4 25 0 0,0
15.11.2018 01:00:00 -0,4 -0,9 -3,0 2,2 5,7 10,1 4 2 6 3 WSW 1030,7 43 0 0,0
15.11.2018 00:00:00 -0,2 -0,7 -2,6 2,7 6,0 10,1 3 2 5 3 WSW 1030,9 25 0 0,0
14.11.2018 23:00:00 0,7 0,2 -1,6 3,0 6,3 10,1 2 1 6 3 N 1031,1 31 0 0,0
14.11.2018 22:00:00 1,1 0,7 -1,1 3,6 6,6 10,1 4 2 8 4 SW 1031,1 24 0 0,0
14.11.2018 21:00:00 1,8 1,4 -0,8 4,1 6,9 10,1 3 2 6 3 NE 1030,8 18 0 0,0
14.11.2018 20:00:00 2,0 1,6 -0,3 4,8 7,2 10,1 5 3 10 6 S 1030,7 14 0 0,0
14.11.2018 19:00:00 2,7 2,2 0,4 5,5 7,5 10,1 6 3 9 5 SW 1030,8 19 0 0,0
14.11.2018 18:00:00 4,3 3,0 1,2 6,4 7,7 10,1 4 2 9 5 SW 1030,3 35 0 0,0
14.11.2018 17:00:00 6,0 3,7 3,1 7,6 7,7 10,1 3 2 7 4 WSW 1029,5 75 0 0,0
14.11.2018 16:00:00 9,9 5,3 6,7 9,0 7,6 10,1 5 3 14 7 S 1028,1 75 56 0,0
14.11.2018 15:00:00 11,0 5,0 11,7 9,4 7,3 10,1 7 4 21 11 E 1027,7 56 58 0,0
14.11.2018 14:00:00 10,8 5,1 10,6 9,8 6,8 10,1 11 6 23 13 E 1027,6 60 60 0,0
14.11.2018 13:00:00 13,4 4,2 13,7 9,4 6,3 10,1 4 2 8 4 SSE 1027,0 75 60 0,0
14.11.2018 12:00:00 12,0 4,7 12,0 7,6 5,9 10,1 6 3 9 5 S 1028,1 68 60 0,0
14.11.2018 11:00:00 9,6 5,7 7,7 5,3 5,7 10,1 6 3 9 5 S 1029,6 72 56 0,0
14.11.2018 10:00:00 6,3 4,1 6,2 4,1 5,8 10,1 5 3 9 5 SW 1031,0 55 60 0,0
14.11.2018 09:00:00 2,2 2,0 0,7 3,1 6,0 10,1 7 4 10 5 SSW 1033,1 16 4 0,0
14.11.2018 08:00:00 1,9 1,6 -0,8 3,3 6,2 10,1 3 2 8 4 SW 1033,4 36 0 0,0
14.11.2018 07:00:00 1,9 1,7 -0,7 3,8 6,4 10,1 3 2 5 3 SW 1033,4 15 0 0,0
14.11.2018 06:00:00 2,7 2,5 0,0 4,3 6,7 10,2 0 0 5 3 N 1033,2 24 0 0,0
14.11.2018 05:00:00 4,0 3,7 1,4 4,9 6,8 10,2 2 1 4 2 WNW 1032,9 45 0 0,0
14.11.2018 04:00:00 5,2 5,0 2,7 5,5 6,9 10,2 3 2 8 4 NNE 1032,3 43 0 0,0
14.11.2018 03:00:00 5,6 5,3 4,7 6,0 7,0 10,2 5 3 9 5 SW 1032,6 31 0 0,0
14.11.2018 02:00:00 5,9 5,5 4,9 6,1 7,1 10,2 4 2 7 4 S 1033,2 25 0 0,0
14.11.2018 01:00:00 5,7 5,5 5,4 6,1 7,2 10,2 3 2 6 3 SSW 1033,7 21 0 0,0
14.11.2018 00:00:00 5,4 5,1 4,5 6,0 7,3 10,2 4 2 5 3 SW 1033,9 15 0 0,0
13.11.2018 23:00:00 5,5 5,2 4,2 6,1 7,4 10,2 3 1 5 3 SSW 1033,9 9 0 0,0
13.11.2018 22:00:00 5,8 5,5 4,2 6,6 7,6 10,2 2 1 5 3 NW 1033,5 12 0 0,0
13.11.2018 21:00:00 7,0 6,6 4,4 7,1 7,7 10,2 3 2 7 4 WNW 1032,9 14 0 0,0
13.11.2018 20:00:00 7,8 7,3 6,9 7,6 7,7 10,2 3 1 8 4 NW 1032,5 23 0 0,1
13.11.2018 19:00:00 8,1 7,4 6,9 7,9 7,8 10,2 5 3 8 4 WSW 1032,2 29 0 0,0
13.11.2018 18:00:00 8,7 7,9 7,8 8,3 7,8 10,2 4 2 10 5 S 1032,2 31 0 0,1
13.11.2018 17:00:00 9,3 7,3 8,3 8,6 7,7 10,2 6 3 9 5 S 1031,6 6 0 0,0
13.11.2018 16:00:00 10,3 6,3 9,4 9,0 7,6 10,2 4 2 22 12 WSW 1030,4 75 0 0,0
13.11.2018 15:00:00 10,5 5,9 10,1 9,5 7,3 10,2 10 5 39 21 NNE 1029,4 71 0 0,0
13.11.2018 14:00:00 11,3 6,1 11,4 10,2 6,8 10,2 24 13 48 26 NE 1028,0 65 1 0,0
13.11.2018 13:00:00 15,2 7,2 15,2 10,2 6,1 10,2 19 10 34 18 NE 1025,5 64 24 0,0
13.11.2018 12:00:00 16,8 4,8 17,9 8,5 5,5 10,2 3 1 8 4 E 1025,0 75 60 0,0
13.11.2018 11:00:00 14,4 5,8 13,7 5,9 5,2 10,2 5 3 7 4 SSE 1025,9 64 60 0,0
13.11.2018 10:00:00 10,3 5,5 7,4 4,0 5,1 10,2 3 2 7 4 WSW 1027,1 61 60 0,0
13.11.2018 09:00:00 4,0 3,5 2,9 2,9 5,2 10,2 5 3 9 5 SW 1028,6 39 7 0,0
13.11.2018 08:00:00 2,8 2,4 0,5 2,7 5,3 10,2 4 2 6 3 SSW 1028,2 15 0 0,0
13.11.2018 07:00:00 2,9 2,4 0,5 2,9 5,5 10,2 4 2 9 5 SSW 1027,2 65 0 0,0
13.11.2018 06:00:00 2,9 2,4 0,5 3,0 5,6 10,3 5 3 8 4 WSW 1025,8 69 0 0,0
13.11.2018 05:00:00 2,8 2,3 0,5 3,1 5,8 10,3 4 2 8 5 W 1025,2 64 0 0,0
13.11.2018 04:00:00 2,9 2,4 0,6 3,4 6,0 10,3 5 3 9 5 WSW 1025,4 70 0 0,0
13.11.2018 03:00:00 3,3 2,5 0,4 3,6 6,2 10,3 5 3 9 5 S 1025,5 73 0 0,0
13.11.2018 02:00:00 3,1 2,7 0,9 3,9 6,4 10,3 5 3 8 4 S 1025,6 41 0 0,0
13.11.2018 01:00:00 3,5 3,0 1,1 4,2 6,6 10,3 4 2 7 4 W 1025,7 49 0 0,0
13.11.2018 00:00:00 3,9 3,0 1,2 4,5 6,9 10,3 4 2 8 4 SW 1025,7 49 0 0,0
12.11.2018 23:00:00 4,3 3,6 1,7 4,9 7,1 10,3 4 2 10 6 WSW 1025,4 37 0 0,0
12.11.2018 22:00:00 4,5 3,6 2,2 5,3 7,3 10,3 5 3 8 5 SW 1025,6 22 0 0,0
12.11.2018 21:00:00 5,2 4,4 2,5 5,8 7,5 10,3 7 4 10 6 S 1025,1 33 0 0,0
12.11.2018 20:00:00 5,7 4,5 3,2 6,4 7,8 10,3 3 2 6 3 W 1024,5 36 0 0,0
12.11.2018 19:00:00 7,1 5,1 3,5 7,1 7,9 10,3 2 1 7 4 W 1023,5 46 0 0,0
12.11.2018 18:00:00 8,7 5,4 4,9 7,9 8,1 10,3 4 2 9 5 S 1022,2 44 0 0,0
12.11.2018 17:00:00 10,7 5,8 7,1 8,9 8,0 10,3 4 2 10 5 SW 1020,5 66 0 0,0
12.11.2018 16:00:00 13,9 6,3 9,6 10,2 7,7 10,3 4 2 8 5 WSW 1018,5 75 57 0,0
12.11.2018 15:00:00 16,6 6,3 16,1 10,4 7,3 10,3 6 4 11 6 S 1016,9 75 25 0,0
12.11.2018 14:00:00 17,7 4,5 15,3 10,8 6,7 10,3 5 3 14 8 WSW 1016,3 75 46 0,0
12.11.2018 13:00:00 19,9 3,4 19,4 10,1 6,0 10,3 10 5 20 11 S 1015,9 56 60 0,0
12.11.2018 12:00:00 18,4 3,8 18,7 8,0 5,5 10,3 9 5 26 14 S 1016,6 75 60 0,0
12.11.2018 11:00:00 16,9 4,5 15,3 5,4 5,2 10,3 6 4 16 9 S 1017,2 75 60 0,0
12.11.2018 10:00:00 12,5 6,0 8,1 3,9 5,1 10,3 4 2 12 6 S 1018,6 75 60 0,0
12.11.2018 09:00:00 4,5 3,8 3,4 2,7 5,2 10,3 5 3 9 5 WSW 1021,4 64 9 0,0
12.11.2018 08:00:00 3,2 2,6 1,0 2,6 5,4 10,3 4 2 9 5 WSW 1021,9 65 0 0,0
12.11.2018 07:00:00 3,1 2,4 0,6 2,7 5,5 10,3 5 3 11 6 WSW 1021,5 75 0 0,0
12.11.2018 06:00:00 3,2 2,6 0,8 2,9 5,7 10,3 5 3 11 6 SW 1021,5 75 0 0,0
12.11.2018 05:00:00 2,8 2,2 0,2 3,0 5,9 10,4 3 2 8 4 SSW 1021,7 71 0 0,0
12.11.2018 04:00:00 2,6 2,1 0,7 3,3 6,1 10,4 4 2 7 4 SW 1021,7 64 0 0,0
12.11.2018 03:00:00 3,2 2,6 0,5 3,6 6,3 10,4 4 2 9 5 WSW 1021,6 71 0 0,0
12.11.2018 02:00:00 3,3 2,9 1,0 3,8 6,6 10,4 4 2 10 6 WSW 1021,4 48 0 0,0
12.11.2018 01:00:00 3,4 2,9 1,1 4,1 6,8 10,4 4 2 9 5 SSW 1021,2 37 0 0,0
12.11.2018 00:00:00 3,3 2,7 0,9 4,4 7,1 10,4 4 2 8 4 WSW 1021,1 44 0 0,0
11.11.2018 23:00:00 3,7 3,2 1,8 4,8 7,3 10,4 5 3 11 6 WSW 1020,7 42 0 0,0
11.11.2018 22:00:00 3,9 3,2 1,6 5,2 7,6 10,4 5 3 10 5 W 1020,6 33 0 0,0
11.11.2018 21:00:00 4,3 3,5 1,6 5,8 7,9 10,4 4 2 8 5 WSW 1019,8 44 0 0,0
11.11.2018 20:00:00 5,6 4,4 3,0 6,5 8,2 10,4 3 2 13 7 NW 1018,8 55 0 0,0
11.11.2018 19:00:00 5,5 4,2 3,3 7,3 8,4 10,4 5 3 9 5 SSW 1017,2 40 0 0,0
11.11.2018 18:00:00 7,5 5,2 4,2 8,2 8,6 10,4 6 4 10 5 SW 1017,2 61 0 0,0
11.11.2018 17:00:00 9,8 5,9 6,1 9,5 8,6 10,4 4 2 8 5 WSW 1016,7 75 0 0,0
11.11.2018 16:00:00 13,6 5,6 10,0 10,9 8,4 10,4 5 3 21 11 E 1014,9 75 53 0,0
11.11.2018 15:00:00 15,3 4,9 15,7 11,4 8,0 10,4 12 7 28 15 NE 1013,8 75 60 0,0
11.11.2018 14:00:00 15,9 5,2 15,5 11,4 7,5 10,4 12 7 33 18 NE 1012,9 64 60 0,0
11.11.2018 13:00:00 16,2 5,3 17,2 10,9 6,8 10,4 9 5 21 12 ESE 1013,4 75 60 0,0
11.11.2018 12:00:00 15,5 4,7 16,3 9,2 6,3 10,4 10 5 18 10 E 1013,7 75 60 0,0
11.11.2018 11:00:00 13,8 5,3 13,6 7,2 6,0 10,4 5 3 12 6 E 1014,3 75 56 0,0
11.11.2018 10:00:00 10,6 5,3 9,5 6,0 5,8 10,5 4 2 11 6 N 1014,6 75 21 0,0
11.11.2018 09:00:00 7,7 5,0 6,5 4,9 5,8 10,5 4 2 10 5 SSW 1014,9 74 7 0,0
11.11.2018 08:00:00 5,1 3,9 4,2 4,3 5,8 10,5 4 2 7 4 WSW 1015,3 71 0 0,0
11.11.2018 07:00:00 3,6 3,0 2,2 4,1 5,9 10,5 5 3 9 5 WSW 1014,9 45 0 0,0
11.11.2018 06:00:00 5,1 3,9 2,0 4,6 6,0 10,5 4 2 10 6 NE 1014,8 56 0 0,0
11.11.2018 05:00:00 5,6 4,0 4,3 4,6 6,0 10,5 6 3 10 5 SSW 1014,7 59 0 0,0
11.11.2018 04:00:00 5,6 3,8 4,2 4,4 6,0 10,5 6 3 11 6 NE 1014,1 65 0 0,0
11.11.2018 03:00:00 5,2 4,2 4,2 4,3 6,1 10,5 3 2 9 5 WSW 1013,3 72 0 0,0
11.11.2018 02:00:00 4,2 3,6 3,0 4,0 6,2 10,5 5 3 11 6 WSW 1012,9 62 0 0,0
11.11.2018 01:00:00 4,3 3,4 2,2 4,2 6,4 10,5 3 2 18 10 NW 1012,7 57 0 0,0
11.11.2018 00:00:00 3,5 3,2 2,6 4,1 6,6 10,5 5 3 10 5 SSW 1012,9 21 0 0,0
10.11.2018 23:00:00 3,2 2,8 1,2 4,3 6,9 10,5 5 3 11 6 SW 1013,3 19 0 0,0
10.11.2018 22:00:00 4,0 3,5 1,7 4,8 7,1 10,5 4 2 11 6 NNE 1012,8 36 0 0,0
10.11.2018 21:00:00 4,4 3,8 1,5 5,4 7,4 10,5 4 2 9 5 WSW 1012,4 29 0 0,0
10.11.2018 20:00:00 5,3 4,6 2,1 6,0 7,6 10,5 4 2 10 6 SW 1011,9 31 0 0,0
10.11.2018 19:00:00 5,8 4,8 2,5 6,8 7,8 10,6 3 2 7 4 SSW 1011,9 42 0 0,0
10.11.2018 18:00:00 8,1 6,3 4,0 7,8 7,9 10,6 3 2 8 4 SW 1011,3 74 0 0,0
10.11.2018 17:00:00 11,5 7,3 7,1 9,0 7,9 10,6 4 2 25 14 NE 1009,8 68 1 0,0
10.11.2018 16:00:00 13,7 7,8 11,9 10,2 7,5 10,6 13 7 24 13 E 1008,5 75 55 0,0
10.11.2018 15:00:00 15,5 3,1 14,5 10,6 7,0 10,6 5 3 11 6 WSW 1007,3 75 60 0,0
10.11.2018 14:00:00 18,0 3,4 15,6 10,3 6,4 10,6 5 3 11 6 SSW 1006,7 75 60 0,0
10.11.2018 13:00:00 17,7 2,8 17,5 9,5 5,7 10,6 5 3 13 7 SSW 1006,9 75 60 0,0
10.11.2018 12:00:00 17,0 3,5 16,2 7,1 5,2 10,6 4 2 8 5 S 1007,8 71 60 0,0
10.11.2018 11:00:00 14,0 3,7 9,9 4,5 5,0 10,6 3 1 9 5 NNE 1009,7 75 60 0,0
10.11.2018 10:00:00 8,8 5,4 6,5 3,4 5,0 10,6 5 3 9 5 SW 1011,7 63 60 0,0
10.11.2018 09:00:00 3,5 2,8 2,4 2,3 5,1 10,6 4 2 10 5 S 1013,8 34 15 0,0
10.11.2018 08:00:00 1,9 1,7 -0,5 2,2 5,3 10,6 4 2 9 5 SW 1014,5 36 0 0,0
10.11.2018 07:00:00 1,8 1,6 -0,7 2,4 5,5 10,6 4 2 10 6 W 1014,7 36 0 0,0
10.11.2018 06:00:00 1,9 1,7 -0,5 2,6 5,7 10,6 4 2 10 5 WSW 1014,7 55 0 0,0
10.11.2018 05:00:00 2,1 1,8 0,0 2,9 5,9 10,6 4 2 9 5 SSW 1014,8 57 0 0,0

tt = temperature
td = dewpoint
tt 5cm = temperature 5cm
tt -5cm = temperature -5cm
tt -20cm = temperature -20cm
tt -100cm = temperature -100cm
ff = wind speed
fx = gusts
dd = wind direction
ppp = reduced air pressure
vv = visibility
sd = sunshine duration
rr = precipitation

Next stations